STARLINK-2659 (48467 NORAD) Tracking and Keplerian Element Data

This shows tracking and keplerian element data for the satellite.

Feedback or suggestion? Click here.




ElementValue
Catalog48467
NameSTARLINK-2659
Epoch Orbit360
Epoch Day214.91667824
Epoch Year2021
RAAN172.3992
Inclination53.0535
Eccentricity0.0001659
Argument of Perigee74.1942
Mean Anonmoly84.6306
Mean Motion15.06410118
Decay Rate1.208E-05
L11 48467U 21040AR 21214.91667824 .00001208 00000-0 99955-4 0 9991
L22 48467 53.0535 172.3992 0001659 74.1942 84.6306 15.06410118 3606

Live tracking and technical data element details for STARLINK-2659 (NORAD 48467). STARLINK-2659 can be tracked NOW for your location showing map with azimuth and elevation plus other details from your city location.

Track the satellite on the map from your city or location and see movement details for azimuth, elevation, latitude, longitude, range, height, and movement on the map or in text.







IsCatalogInMostPopularTable: catalog: 48467, numindb: 25
Update: records affected: 1



GetName: 48467 STARLINK-2659

Hit Count: updated at: Wed, 04 Aug 2021 00:23:09 GMT